Terminal Aerodrome Forecast
Issued by NWS

Home | Current Version | Previous Version | Text Only | Print | Product List | Glossary On
Versions: 1 2 3 4 5 6 7 8 9 10 11 12 13 14 15 16 17 18 19 20 21 22 23 24
000
FTUS43 KDVN 221120
TAFCID
TAF
KCID 221120Z 2212/2312 30010KT P6SM BKN200
      TEMPO 2212/2213 BKN006
     FM221500 33016G23KT P6SM SCT040
     FM230000 31007KT P6SM SKC=

USA.gov is the U.S. government's official web portal to all federal, state and local government web resources and services.